Showing default

SONATE-2, 59112

Orbit data source: Space-Track

SONATE-2, 59112 is a payload satellite owned by U Wurzburg (DE) in SSO that was launched on Mon, 04 Mar 2024 UTC via an FALCON 9 launch vehicle from the Air Force Western Test Range (AFWTR). Payload-class satellites include a variety of spacecraft equipped with specific instruments for various scientific and technological missions. These include communications satellites like Starlink; space stations such as the ISS; scientific satellites like the Hubble; Earth observation satellites from companies like Planet Labs, Umbra, and HawkEye 360; GPS; miniature CubeSats for education and research; and military/defense satellites.

Loading next visibility...
Identifier
59112, 2024-043Q
Orbit
SSO
Country
Flag of DEDE / GER
Related business
Manufacturer
U Wurzburg
Mission
Operational Amateur Technology
Bus & Motor
CUBESAT 6U, Unknown motor
Mass
~12 kg wet, ~12 kg dry
Launch date (UTC)
2024-03-04 (2 years ago)
Launch vehicle
FALCON 9
Launch site
Air Force Western Test Range (AFWTR)
Object type
Payload
Rocket body
Debris
Shape & HBR
Box + 2 Pan, 0.3 m
Radar Cross Section
0.051 m², Medium (>0.1 m² and < 1m²)

Expand to show TLE details & history
Last TLE update: 8 hours ago

TLE from 8 hours ago
0 SONATE-2
1 59112U 24043Q   26125.40299552  .00051717  00000-0  74754-3 0  9994
2 59112  97.5494 273.2935 0006293   3.5443 356.5854 15.55757930121230
Epoch: 2026-05-05T09:40Z
TLE epoch observation values (Epoch: 2026-05-05T09:40:18.812Z)
Latitude
-0.0001°
Longitude
-95.06321°
Altitude
398.826 km
Speed
7.674 km/s
True Right ascension
18h 13m 10s
True Declination
0° 00' 00"
Sunlit
Object was in full shadow at epoch
Visualization orbit readout
Latitude
Unknown
Longitude
Unknown
Altitude
Unknown
Speed
Unknown
Apparent Right ascension
Unknown
Apparent Declination
Unknown
Sunlit
N/A
Visualization observer readout
Local Sidereal Time
01:24:03
Azimuth
Unknown
Elevation
Unknown
Doppler factor
Unknown
Orbital elements
Apogee altitude
401.138 km
Perigee altitude
392.611 km
Semi-major axis
6,775.012 km
Eccentricity
0.00063
Inclination
97.5494°
RAAN
273.2935°
Arg. of periapsis
3.5443°
True anomaly
356.5811°
Mean anomaly
356.5854°
Eccentric anomaly
356.58325°
Mean motion
3.89205 °/min
Orbital period
92.5 mins
BSTAR
0.00074754
Loading maneuver chart data...
Computing Atmospheric mass density...
Loading historical data...
Loading historical data...
Loading historical data...
Loading historical data...
Loading historical data...
Loading historical data...
Loading historical data...

Documentation

Showing up to 5 results
|